RH
11 10 13 10 15 21 30 26 19 31 26 25 35 27 13 20 28 18 17 32 44 55 66 69 68 68 68 71 81 86 85 85 78 83 91 87 91 87 80 82 67 55 59 64 76 83 82 82 83 85 85 84 76 70 69 67 63 56 53 51 51 53 54 57 56 53 53 56 60 62 64 66 66 65 62 58 58 64 67 68 76 85 86 84 79 78 86 92 89 82 83 87 88 89 89 89 86
10 11 12 12 20 24 35 34 25 35 29 20 33 31 19 23 27 18 16 33 51 63 71 71 73 74 74 75 80 79 79 92 86 83 92 93 98 93 88 84 67 57 58 63 70 79 84 79 80 85 86 86 79 71 68 68 65 58 54 51 50 51 53 57 59 58 56 57 59 63 67 69 69 69 69 67 69 72 73 75 82 86 86 86 84 87 91 91 89 84 83 88 89 87 90 89 85
10 12 13 17 24 29 41 37 27 31 23 18 30 33 24 18 24 25 17 39 66 67 62 57 60 62 70 78 80 83 81 89 90 92 97 94 99 97 94 82 68 58 56 69 75 80 84 79 77 79 86 88 82 74 67 67 67 61 55 51 50 48 51 56 60 62 61 62 61 61 65 72 75 76 77 79 85 83 84 86 84 84 85 87 84 87 91 92 90 87 86 89 90 88 90 88 83
12 16 17 22 27 34 42 38 44 36 21 29 37 36 27 24 44 52 39 57 71 56 51 55 60 55 68 85 83 89 90 89 86 90 96 92 95 99 96 81 68 59 61 78 82 81 81 76 75 77 84 88 86 80 72 68 67 64 57 53 51 48 50 54 60 63 64 67 66 65 64 70 74 78 83 86 91 88 88 86 82 81 80 80 81 87 89 91 92 90 90 88 91 90 87 84 82
14 19 18 23 29 33 37 40 54 37 18 35 39 35 28 33 56 62 56 60 57 46 47 58 64 57 69 80 77 90 93 91 87 86 95 95 94 100 95 76 65 63 66 74 74 76 79 76 77 81 84 86 89 87 79 72 68 66 60 54 52 50 50 54 60 64 66 67 70 72 67 68 68 73 82 85 89 91 89 85 84 79 74 72 71 85 88 88 91 89 89 88 90 86 83 83 82
17 21 20 22 29 30 35 36 45 41 27 31 29 27 26 33 44 46 49 48 49 51 49 57 62 65 77 74 73 91 88 87 90 89 97 98 98 99 87 69 64 66 68 68 66 70 80 81 79 82 82 84 90 92 87 79 73 67 62 56 54 53 52 54 60 65 66 67 70 73 72 72 72 72 78 86 88 88 88 85 84 75 72 69 59 76 90 88 89 88 87 89 89 83 84 87 84
16 21 27 26 30 33 44 45 47 49 35 28 25 22 21 29 39 39 44 45 50 54 54 58 61 71 81 73 74 82 79 82 89 93 98 99 101 95 79 68 67 71 70 67 68 72 80 80 77 81 83 84 88 92 92 87 81 73 67 59 55 55 55 55 60 67 66 68 70 71 72 73 79 78 78 86 88 85 85 79 76 71 71 69 56 66 85 88 88 88 88 90 87 84 86 87 87
16 26 37 33 33 35 46 48 46 45 32 29 27 23 20 24 36 38 39 45 48 54 60 59 62 74 77 79 85 84 85 86 87 95 99 100 99 88 76 70 69 73 71 68 73 78 82 77 75 82 83 86 87 90 93 93 90 82 75 65 59 57 57 57 61 67 67 68 70 72 71 69 75 78 79 85 88 88 83 74 68 69 70 70 59 56 74 86 87 86 87 88 82 81 84 86 91
18 25 35 35 32 34 43 40 35 36 31 29 23 26 29 24 28 29 31 37 44 54 62 60 60 68 77 93 98 91 95 93 89 97 100 99 94 84 76 72 70 72 70 72 78 80 84 79 77 84 83 85 87 87 92 96 96 90 82 74 67 62 62 63 64 67 67 69 71 72 69 67 70 73 80 82 84 85 80 74 71 72 70 71 63 53 64 79 84 81 82 81 77 78 82 87 92
24 26 31 37 33 31 40 37 34 34 29 28 21 21 26 22 20 19 19 25 42 56 59 67 71 73 84 99 98 94 100 99 95 100 101 97 91 83 79 73 70 72 71 75 81 82 89 84 79 85 85 85 87 87 89 94 98 94 87 82 74 68 67 68 68 69 69 73 75 73 66 67 70 72 76 76 80 82 80 76 75 78 73 69 67 59 58 70 77 72 73 75 75 78 79 83 83
29 30 33 39 36 32 35 37 39 39 33 29 24 19 19 18 17 16 16 22 44 57 58 72 85 88 93 96 96 96 99 100 99 100 100 99 93 85 81 78 74 73 71 76 84 88 94 89 79 83 87 86 87 88 88 91 96 95 89 87 83 74 69 69 70 71 71 75 77 74 69 70 74 76 70 68 78 84 84 78 74 77 70 65 68 67 60 62 68 64 65 69 73 75 74 76 75
25 31 39 41 40 37 40 41 38 39 35 27 22 20 19 18 16 15 18 27 46 59 62 71 79 86 96 100 97 97 99 100 100 100 101 100 97 90 85 83 78 73 72 80 89 90 92 91 85 84 86 85 87 88 89 90 93 94 88 87 90 82 74 71 71 73 75 75 74 72 73 77 80 77 66 63 70 80 83 77 74 73 64 61 63 67 66 62 63 62 61 62 65 69 71 72 70
29 34 36 34 42 40 36 36 32 36 33 26 21 18 16 16 15 16 21 31 48 59 62 63 68 81 96 99 95 97 98 98 100 100 100 100 100 96 92 90 83 76 77 84 90 90 89 89 87 86 87 88 90 91 92 91 91 93 89 87 91 89 81 76 75 76 81 82 80 79 77 83 83 70 68 69 66 76 84 74 71 71 63 58 56 61 67 68 66 63 60 59 57 56 60 62 58
29 37 33 25 38 38 27 26 25 28 26 23 22 15 14 15 13 17 28 40 53 57 55 57 65 80 96 99 98 99 96 99 101 99 101 100 101 100 98 99 90 82 83 84 85 90 90 84 81 85 89 90 91 93 94 94 94 93 90 88 90 93 86 81 80 81 88 89 82 82 82 84 81 69 72 71 58 66 79 76 71 67 64 57 52 54 62 70 73 70 64 63 59 51 48 49 48
22 37 39 25 29 29 23 24 21 21 20 20 19 12 15 20 20 25 33 43 55 51 50 59 56 62 86 95 96 94 92 99 101 99 101 99 101 101 100 101 96 90 85 85 84 84 85 77 70 76 83 86 88 90 93 93 91 88 86 88 91 93 89 83 81 82 89 85 74 80 86 78 75 76 75 65 53 56 68 76 73 63 64 60 50 50 56 65 74 77 71 66 65 58 48 45 43
24 31 33 23 24 25 23 24 20 20 19 17 15 13 21 26 27 33 34 41 53 49 49 59 45 46 76 86 85 87 92 100 100 100 100 99 101 100 101 100 98 95 90 91 87 77 74 70 65 68 73 75 78 83 89 90 86 83 82 87 92 92 91 88 85 83 81 74 69 78 83 67 68 80 72 60 53 54 61 73 77 68 64 61 52 50 55 62 70 79 81 72 68 65 57 49 41
20 24 28 25 27 26 26 26 19 18 18 16 12 16 28 30 31 35 37 44 53 51 46 54 51 54 76 80 80 90 96 101 100 100 100 100 101 99 101 100 100 99 98 96 86 77 70 68 69 72 74 71 70 75 83 88 85 82 84 88 89 88 89 87 82 79 77 76 73 71 72 65 69 80 70 59 54 53 58 68 77 73 66 61 54 52 54 63 67 72 84 81 72 70 67 60 49
17 25 27 27 29 26 28 29 21 17 14 15 12 15 27 31 33 35 40 47 48 50 48 60 75 77 81 83 89 97 99 101 100 100 100 100 100 100 100 100 101 100 101 96 85 80 72 70 75 77 80 74 68 71 76 83 84 81 84 84 84 88 89 84 80 77 75 79 77 65 63 66 72 81 74 66 65 62 61 66 73 73 68 60 56 55 54 62 67 63 75 86 80 72 70 68 60
23 32 26 29 32 25 25 25 19 16 12 15 13 13 25 31 30 31 43 50 46 53 60 75 93 93 91 94 98 100 100 101 100 100 100 100 100 100 100 100 100 99 101 97 86 82 76 73 75 76 81 77 71 70 69 73 78 80 80 77 79 88 89 86 83 77 71 72 73 63 58 64 74 82 77 75 81 80 74 70 71 74 69 58 56 59 54 61 68 61 64 81 86 76 70 69 65
23 26 23 29 30 24 24 21 16 15 13 15 13 14 24 24 22 30 44 50 47 56 66 77 92 98 98 99 100 100 100 100 100 101 100 100 101 100 101 100 100 101 100 93 85 83 79 74 74 79 83 81 78 76 71 68 69 71 75 76 79 83 83 85 83 82 78 72 72 63 56 63 76 81 78 82 88 91 90 79 76 78 69 61 63 60 56 61 67 62 59 72 85 78 71 69 67
17 18 22 26 22 20 19 18 17 17 15 14 13 14 17 14 22 37 43 46 46 49 53 60 82 97 98 99 100 100 100 100 100 100 100 100 100 101 100 100 100 100 100 93 85 81 78 74 75 80 83 84 84 84 81 77 70 63 64 68 74 77 77 80 84 89 88 79 76 68 60 63 69 75 80 87 88 94 98 85 79 76 66 65 64 57 57 61 64 62 56 64 77 75 71 70 68
15 17 22 22 18 16 13 15 17 16 15 14 14 12 12 18 31 39 38 43 42 41 41 49 76 91 93 97 97 97 98 96 97 98 100 100 100 101 100 101 100 100 101 94 82 77 75 75 77 78 80 83 85 86 88 89 80 68 62 59 62 67 70 74 78 85 87 83 79 72 66 61 60 66 77 86 89 99 99 82 75 68 61 62 57 51 54 58 60 62 58 59 68 71 71 70 68
15 17 19 20 17 15 13 15 15 14 13 11 13 12 15 28 38 35 30 32 30 32 38 51 75 84 85 91 92 93 93 89 90 91 93 96 97 99 100 100 99 98 97 87 79 77 78 78 77 77 78 78 81 83 86 92 87 76 68 61 59 60 63 68 71 76 80 81 79 75 69 61 60 64 72 81 89 102 99 79 70 64 56 55 51 48 52 57 60 62 61 58 64 69 69 68 66
14 16 17 17 17 17 14 14 14 14 12 11 14 11 16 30 33 27 22 20 23 34 43 56 72 77 81 88 88 87 84 82 81 80 81 84 85 89 93 93 92 93 90 84 82 82 82 82 80 78 77 74 74 75 78 85 89 83 72 65 65 62 61 62 64 69 72 73 76 79 73 66 67 68 71 77 86 99 97 79 68 63 54 45 46 48 52 58 59 62 64 62 65 65 64 65 67
15 14 15 15 16 17 15 15 15 15 14 13 14 12 14 23 25 23 21 20 30 41 49 59 68 73 79 82 83 79 77 77 75 73 72 75 76 78 82 82 84 87 86 85 87 87 86 86 84 81 79 76 71 70 73 78 85 86 77 72 71 68 65 61 67 73 68 64 67 74 73 71 72 71 74 76 82 94 93 81 68 61 53 42 44 49 51 54 55 60 65 65 66 65 66 71 74
18 14 15 15 14 15 14 15 14 15 16 13 11 12 12 15 18 18 21 28 38 44 49 58 65 69 73 75 76 73 74 77 74 68 65 69 72 74 76 77 81 85 85 88 89 88 87 89 89 88 86 84 79 73 74 79 84 85 81 81 80 76 72 70 80 84 74 67 67 69 70 75 76 72 79 80 84 91 88 84 74 61 52 43 42 47 51 53 53 56 60 64 69 72 74 76 77
19 15 15 15 15 15 15 15 16 17 15 14 11 12 12 13 15 13 22 38 41 44 50 55 61 65 65 68 71 69 71 74 68 61 61 64 65 68 70 71 78 84 86 89 90 89 87 89 91 93 92 89 86 79 76 80 83 85 83 83 84 82 78 79 88 89 83 79 73 70 69 74 75 74 86 91 91 90 86 85 77 64 54 45 42 45 51 53 55 57 59 65 70 72 72 72 72
15 15 14 16 19 17 16 14 14 15 11 14 13 11 13 13 13 13 24 42 42 42 49 52 58 61 60 62 64 64 65 64 58 58 62 61 58 62 63 65 73 81 85 85 88 89 87 89 91 92 93 90 85 78 76 77 81 84 84 84 85 86 84 86 92 91 88 80 69 67 71 73 73 80 92 96 94 88 84 82 75 69 57 49 45 43 48 52 56 60 62 66 67 68 67 68 70
13 15 11 17 23 16 15 17 15 13 11 15 14 11 17 17 13 15 28 45 43 42 47 50 54 55 55 58 57 57 56 56 54 56 61 56 55 59 59 63 68 73 79 81 86 90 88 87 88 88 90 88 79 72 70 68 69 74 81 89 91 91 91 92 93 90 86 76 68 69 75 77 76 86 91 88 92 86 79 76 73 73 61 52 49 44 45 49 53 57 60 63 62 63 63 65 70
14 14 15 23 25 18 14 18 17 11 13 15 12 16 26 26 20 17 31 48 46 44 46 46 50 51 53 55 53 53 51 53 55 54 55 50 49 54 56 62 65 68 75 81 87 88 83 78 79 83 85 80 70 64 60 56 54 56 70 88 94 95 96 98 94 87 85 80 79 78 77 77 77 89 91 82 87 88 85 83 77 76 67 57 53 47 46 46 49 52 53 57 58 63 68 71 76
20 12 26 35 22 19 19 21 20 9 13 16 9 19 26 23 23 16 27 48 46 46 49 44 49 51 51 54 53 52 52 52 51 50 49 44 44 50 56 64 68 68 70 75 78 75 70 68 73 79 78 71 63 60 57 53 52 51 59 72 78 82 85 89 88 84 85 82 84 83 76 72 72 86 93 87 89 89 91 94 87 81 73 63 55 51 52 52 55 54 53 60 65 70 79 85 86
32 13 34 48 24 20 22 22 25 12 12 16 9 21 25 16 19 15 23 47 48 47 51 47 49 51 51 55 55 53 54 52 47 47 46 42 44 50 55 61 64 61 59 61 63 63 62 65 70 72 70 65 60 58 56 54 55 53 56 61 63 64 64 70 78 82 82 77 76 75 69 65 65 76 87 91 96 90 88 96 95 89 82 76 71 62 62 66 70 72 69 71 77 81 84 86 86
53 29 30 37 23 21 21 16 22 18 13 13 11 19 22 15 22 21 22 42 52 50 53 51 51 53 53 56 59 59 58 55 51 49 45 42 44 47 50 53 52 52 52 51 54 56 57 62 68 66 64 62 57 56 55 54 55 55 56 59 61 58 54 59 66 69 69 68 68 66 66 66 65 71 78 86 95 92 90 97 97 93 90 91 89 76 74 79 76 79 82 76 79 84 81 81 84
57 55 41 32 30 26 25 20 20 23 17 13 14 17 17 17 27 29 22 32 48 52 54 56 55 54 57 59 62 62 60 58 54 49 46 43 42 42 45 47 45 46 47 46 48 49 49 57 64 61 60 59 55 54 52 51 51 53 54 59 61 52 49 56 61 63 66 69 69 66 68 73 75 78 81 85 92 92 92 96 98 97 97 97 96 89 90 94 82 79 87 84 79 77 78 84 89
36 54 46 36 40 28 27 27 24 28 22 18 18 16 18 20 28 34 29 32 44 51 51 51 53 53 58 64 64 61 59 57 50 46 45 44 41 40 43 44 43 44 45 45 45 43 45 55 60 58 58 57 55 52 48 46 47 50 53 57 57 48 50 60 63 66 70 71 70 68 69 72 76 82 84 85 86 86 87 93 97 99 100 99 99 96 94 97 93 90 95 94 87 83 84 88 86
29 47 44 33 34 31 32 28 29 34 23 22 25 22 24 24 27 32 36 41 40 43 44 42 48 53 58 66 67 62 60 55 47 44 46 46 43 40 43 45 45 45 44 43 42 41 45 54 58 56 56 55 52 49 44 43 43 45 49 50 47 46 53 62 64 69 73 72 71 72 72 72 75 79 83 83 82 82 84 84 85 89 94 93 93 91 87 91 96 97 98 96 93 93 89 84 83
43 49 46 36 32 32 32 24 34 40 19 23 40 37 31 30 32 33 40 43 32 32 40 42 48 53 58 65 68 64 59 54 47 45 47 46 44 43 45 48 48 48 45 40 39 40 44 50 54 54 53 53 49 46 43 41 41 42 43 43 40 45 55 62 67 70 69 71 74 74 72 70 72 74 77 80 78 79 83 82 80 84 86 86 89 89 87 90 94 95 99 98 98 100 91 84 90
50 44 37 35 38 34 29 27 43 45 18 24 45 39 32 36 43 50 53 41 26 27 32 37 46 51 56 62 66 66 58 54 54 54 53 49 47 46 48 51 50 48 45 40 38 40 42 45 49 50 50 49 46 43 39 37 41 43 39 35 36 45 55 59 60 57 55 64 73 71 66 63 62 62 65 71 73 76 84 86 84 85 83 83 89 87 82 88 93 95 98 98 99 99 92 90 96
53 42 34 37 44 38 38 43 54 51 26 30 43 34 36 49 53 57 60 48 39 41 34 31 39 45 52 58 64 66 59 58 62 62 60 55 51 50 50 53 53 49 45 42 39 39 41 43 45 48 48 46 43 37 31 33 41 41 33 31 36 41 45 47 46 45 47 56 63 62 60 59 57 55 62 71 76 80 84 85 84 84 82 81 85 85 81 86 94 96 97 96 93 92 90 89 90
54 43 33 41 46 37 40 49 54 52 38 37 39 33 43 58 57 52 56 57 55 59 54 46 43 42 47 52 59 65 61 61 63 62 63 62 59 55 53 55 57 54 50 44 41 39 40 40 41 45 46 43 39 32 30 35 41 39 33 34 36 31 33 40 42 46 52 54 56 59 61 60 57 60 69 75 78 80 80 80 82 83 81 80 80 82 80 80 86 90 93 95 96 96 94 92 89
63 57 38 42 45 33 35 47 58 61 55 51 38 37 58 64 53 47 51 55 53 54 55 50 48 47 46 49 55 62 62 60 60 59 62 67 65 59 55 57 58 56 51 44 40 38 36 32 35 42 43 41 37 32 35 39 41 40 39 41 40 33 35 44 45 46 51 53 54 60 62 58 60 67 71 73 74 75 73 73 78 81 81 80 78 78 78 77 80 82 84 92 99 101 99 100 98
65 66 49 47 45 38 39 49 63 61 56 55 36 36 74 77 50 45 52 50 44 43 40 37 43 47 46 49 52 59 64 61 59 58 59 64 64 59 58 58 57 56 51 44 40 38 31 24 29 36 39 40 37 35 40 43 43 43 42 43 40 36 36 38 37 36 40 47 53 60 60 56 63 68 67 68 70 71 73 74 78 80 80 80 78 78 77 77 78 77 78 83 91 95 97 101 100
49 55 56 58 54 48 45 41 46 50 47 57 51 39 64 73 47 47 57 47 37 36 34 32 37 43 46 46 45 53 62 62 60 60 60 62 62 62 61 57 55 55 52 48 45 40 29 20 24 29 30 36 38 37 42 45 46 47 45 42 33 29 29 28 27 29 34 42 51 59 57 56 63 67 68 71 71 73 77 77 78 79 78 78 77 77 77 78 79 78 77 78 81 85 90 95 98
46 55 57 56 50 45 53 45 42 55 48 57 76 51 44 61 48 46 54 40 33 33 30 30 29 34 41 42 43 47 53 58 59 59 59 61 62 63 61 55 52 54 53 52 48 39 28 18 20 23 24 31 36 38 43 45 46 47 48 46 35 27 27 25 24 27 33 40 49 57 58 58 66 70 72 74 74 77 76 74 78 78 69 65 66 69 71 71 71 72 73 74 76 78 81 85 88
49 61 56 51 47 48 66 59 48 64 44 41 79 55 35 64 59 48 49 34 33 36 30 32 30 30 33 35 41 42 44 51 54 55 57 60 62 61 57 52 51 54 55 54 49 39 27 19 19 23 24 29 35 38 42 45 45 46 49 50 42 32 29 28 25 25 30 35 44 54 56 59 67 72 73 73 72 67 59 60 67 62 51 46 47 48 49 49 51 55 59 64 69 72 77 79 80
47 57 48 45 53 60 71 64 52 62 45 37 69 54 32 55 56 47 41 27 33 39 32 34 33 32 32 32 37 37 39 45 49 53 54 55 59 58 54 52 53 56 56 55 52 43 31 24 25 28 27 30 34 38 42 44 45 45 48 50 43 35 32 31 28 25 28 32 38 48 52 56 65 70 71 72 68 53 40 43 45 39 35 36 34 33 34 38 43 48 51 55 60 65 71 74 77
44 51 43 35 52 63 68 76 61 49 47 47 64 60 34 39 56 58 44 32 39 43 38 37 35 36 40 40 39 37 36 39 45 52 52 52 56 55 55 55 56 58 57 56 54 48 36 26 29 31 30 32 34 38 41 43 45 46 48 49 41 35 34 34 31 26 27 28 30 37 44 50 58 65 67 69 64 48 36 35 33 31 34 35 35 32 32 39 46 49 52 54 58 63 67 70 72
46 51 45 32 47 57 54 67 57 41 53 57 63 65 38 32 54 58 48 44 46 45 42 42 41 42 45 46 46 43 40 39 43 50 52 55 58 57 58 58 58 59 58 57 55 50 38 27 30 34 33 34 34 38 42 44 47 47 49 48 38 32 34 35 33 28 26 24 22 28 37 44 49 53 55 58 59 48 35 31 33 36 39 41 42 37 34 39 43 47 52 56 59 62 65 67 68
42 43 47 35 42 53 49 54 51 49 58 52 56 56 35 40 53 46 47 50 46 47 47 46 47 45 43 45 47 48 47 44 45 50 54 59 62 63 62 61 61 61 58 57 55 51 42 33 33 34 34 36 37 40 43 46 48 46 47 47 38 32 33 35 34 30 28 26 23 23 29 35 37 37 38 43 47 44 35 34 39 42 45 49 49 43 39 41 44 49 53 57 62 64 66 68 69
31 35 45 41 46 54 56 58 51 52 54 50 57 53 42 53 50 39 46 49 47 51 50 50 51 45 39 39 43 48 51 49 48 51 56 62 63 62 63 63 62 61 59 58 55 52 48 43 38 35 32 34 37 41 43 45 47 42 41 43 36 31 33 34 34 33 30 29 26 24 23 26 27 26 27 33 38 39 38 39 44 48 50 54 55 48 41 42 48 53 54 57 62 65 67 70 70
32 38 38 40 53 51 50 53 43 42 47 46 45 45 56 57 36 37 51 48 47 48 46 47 46 41 36 33 36 43 50 56 57 54 56 62 63 59 59 62 63 62 61 59 57 55 53 49 44 38 33 31 33 38 40 43 45 41 38 39 35 31 32 32 33 34 32 30 28 27 25 24 25 24 26 33 37 38 41 43 47 54 56 58 59 51 43 45 51 54 53 56 61 64 65 67 68
34 40 32 35 48 48 46 50 51 49 45 47 44 48 72 64 35 45 58 47 43 42 40 39 37 38 35 33 36 38 42 53 62 64 62 62 62 59 59 63 63 63 61 60 59 58 57 54 49 41 34 29 30 35 38 42 44 41 37 35 32 30 31 32 34 36 35 32 29 29 29 28 26 25 28 34 38 39 43 47 53 60 60 60 61 52 46 50 56 58 55 56 61 64 65 66 68
34 32 30 36 41 51 51 44 61 65 45 51 56 47 58 53 34 46 53 42 40 41 40 38 38 39 36 38 41 38 39 43 53 65 70 71 67 59 58 63 64 64 62 61 61 61 61 61 59 56 49 42 40 37 36 40 43 42 37 33 30 30 31 32 33 36 37 34 31 30 31 32 29 27 29 34 38 42 46 52 60 64 62 62 61 52 49 53 57 59 57 58 63 65 67 69 70
33 28 34 38 35 53 58 44 60 66 49 66 70 47 45 46 40 47 47 38 38 42 42 38 40 41 39 42 42 41 44 42 44 53 62 70 71 65 61 59 60 62 62 62 61 61 63 64 64 66 61 55 48 38 34 38 40 37 35 32 31 31 32 33 33 36 39 37 33 32 33 34 32 30 31 36 42 47 51 57 63 64 64 64 61 56 56 59 60 61 61 62 66 67 69 70 71
34 34 34 39 42 55 57 49 56 51 47 73 77 57 50 50 51 47 37 35 38 43 45 41 42 45 46 48 45 45 48 48 49 50 53 62 65 66 66 61 58 58 58 60 60 59 61 61 60 61 61 58 53 48 44 42 39 39 38 34 33 34 34 35 34 36 40 39 36 34 35 36 36 33 33 38 45 50 54 60 63 64 66 64 61 60 62 63 62 63 65 67 68 69 69 69 70
34 41 37 45 60 62 51 47 53 48 55 73 67 53 47 53 65 54 35 41 43 38 42 44 46 49 51 54 52 51 54 55 57 56 57 60 60 61 62 62 62 59 57 58 57 57 57 55 56 56 57 58 58 59 54 46 42 43 43 38 38 38 36 36 36 37 40 39 37 37 36 38 39 37 36 39 46 50 54 58 62 64 65 62 60 63 63 63 65 66 67 68 68 68 69 70 71
33 39 39 41 45 44 40 43 50 49 61 76 66 54 53 62 75 57 38 51 59 47 41 44 50 51 52 57 58 57 59 62 64 65 65 63 60 59 58 58 60 58 60 62 60 61 57 54 55 54 54 56 56 56 54 53 49 42 40 42 41 41 39 38 38 38 40 39 38 38 38 40 41 40 39 40 45 50 53 57 61 63 61 57 58 62 62 63 66 67 67 68 68 68 68 69 70
43 39 39 42 43 43 41 45 55 50 54 69 64 55 60 67 73 66 53 59 66 59 48 46 52 55 57 60 60 61 64 66 70 73 73 70 65 62 59 57 56 55 57 59 62 65 64 62 60 56 54 54 53 50 51 59 58 44 41 48 47 43 42 41 40 42 42 40 39 39 38 41 43 42 42 42 45 50 53 57 60 59 55 52 57 61 62 64 66 67 66 65 65 66 65 66 67
Wind_Speed
4 4 5 5 5 4 2 2 1 3 3 2 3 1 4 4 2 3 4 2 1 1 1 1 3 5 4 6 7 4 3 4 4 4 4 3 8 25 22 14 19 21 20 18 16 17 16 17 18 18 18 18 18 17 18 18 19 19 20 19 19 20 20 20 20 21 21 22 22 20 18 17 17 17 18 18 17 17 17 16 16 15 15 15 14 13 14 15 16 15 15 15 15 15 15 15 14
4 4 5 3 2 0 1 3 3 3 5 1 4 3 4 3 1 4 5 2 2 3 4 4 6 6 4 7 6 4 3 3 1 2 0 4 14 20 17 13 18 20 20 18 17 17 15 17 18 18 18 18 18 17 17 18 18 18 19 19 19 19 18 18 18 19 19 20 20 19 18 17 16 15 16 17 16 16 16 16 16 15 14 14 14 13 14 15 15 15 15 15 15 15 15 15 14
4 4 3 1 1 2 1 4 3 1 4 2 5 4 3 3 4 7 7 4 5 5 5 4 5 4 4 5 3 3 1 3 1 2 2 9 13 13 14 15 19 20 19 16 16 16 15 16 17 18 17 18 18 17 17 17 18 18 18 18 18 18 17 17 17 17 17 17 17 17 17 17 16 15 15 15 15 15 15 15 15 15 14 14 13 13 14 14 15 15 15 15 15 15 15 15 14
4 4 2 3 1 4 3 3 3 4 3 3 3 4 3 1 4 4 4 6 5 1 1 3 4 2 2 6 2 2 1 0 2 3 3 6 10 13 16 18 20 20 17 14 13 14 14 15 16 17 16 17 18 17 17 17 18 18 18 18 17 17 17 16 17 16 16 15 15 16 16 16 16 15 14 15 15 15 15 15 15 14 13 13 14 13 13 14 15 15 15 15 15 16 16 15 15
4 2 0 3 3 1 3 2 2 3 3 4 1 3 3 1 1 3 3 3 1 3 3 3 3 1 3 4 2 2 1 3 3 3 5 7 14 17 18 21 21 19 16 13 12 12 12 14 15 15 15 16 17 17 16 16 17 17 17 17 17 17 17 16 16 16 15 14 14 14 14 14 14 14 14 15 16 16 16 15 14 13 12 13 15 14 13 14 14 15 16 16 16 16 16 16 16
3 2 1 3 2 1 3 2 2 1 4 5 3 2 1 2 3 3 2 2 3 4 4 2 3 3 3 2 2 3 2 4 3 4 7 11 17 18 20 23 21 18 15 14 12 11 11 12 14 14 14 15 16 16 16 16 16 17 17 17 16 16 17 16 16 16 15 14 14 12 12 13 13 13 13 14 16 16 16 16 14 13 12 14 16 14 13 14 14 15 16 16 16 17 16 16 17
2 1 2 3 1 2 4 3 3 3 4 5 4 3 1 1 3 2 3 4 5 5 5 2 4 6 3 1 2 3 1 5 5 6 10 16 20 20 22 22 20 17 14 14 12 11 11 12 13 13 13 14 15 15 15 16 15 16 16 17 16 16 16 16 15 15 14 14 13 12 11 11 12 12 12 13 14 15 16 15 14 12 12 14 16 13 13 14 14 16 16 16 16 16 16 16 17
2 1 1 4 1 3 4 1 2 3 3 4 4 4 2 2 4 2 1 2 2 3 3 0 1 6 1 2 2 3 5 7 8 11 15 20 22 22 23 22 20 17 15 14 13 12 11 11 12 11 12 13 14 14 14 15 15 15 16 16 16 15 15 15 14 14 14 13 12 11 11 11 10 10 10 13 14 14 14 13 13 12 12 14 16 13 13 15 15 16 15 16 16 17 17 17 16
3 2 1 3 1 1 1 2 2 3 4 6 5 5 5 5 4 3 2 1 2 2 2 3 3 4 2 3 3 2 5 9 12 16 19 21 22 23 22 20 19 18 16 14 13 12 11 11 12 11 12 12 13 13 13 13 14 15 16 16 16 16 15 15 14 14 13 13 12 12 12 11 11 9 9 11 13 14 13 13 13 12 12 14 16 14 13 14 15 15 14 16 18 17 16 15 14
3 3 2 2 2 0 3 2 2 3 5 6 7 6 6 6 5 4 5 4 4 6 3 1 4 3 5 4 2 1 4 13 18 18 19 21 22 22 21 19 18 18 16 13 12 12 11 11 11 11 11 12 12 12 12 12 12 14 16 16 17 16 16 15 15 14 13 12 12 12 12 12 11 10 10 10 10 13 13 13 14 13 12 13 15 15 13 13 14 14 15 16 17 17 15 13 11
2 3 3 3 2 2 4 3 3 4 5 4 7 9 7 6 4 4 5 4 5 8 4 2 4 4 5 3 0 3 10 15 18 19 19 20 20 21 20 18 17 16 16 14 13 13 12 10 10 11 10 11 11 10 11 11 12 13 14 14 16 17 17 16 15 14 13 12 12 13 13 12 12 11 10 9 9 10 11 12 13 13 13 12 13 14 13 12 13 15 15 15 15 15 15 13 11
2 2 4 3 2 3 3 2 4 5 6 3 5 8 4 6 5 5 7 6 6 8 5 3 4 4 5 1 0 6 12 14 16 18 18 19 19 20 19 18 16 15 15 14 14 14 13 11 10 9 9 10 10 10 10 10 11 12 12 12 15 17 17 16 16 14 12 11 10 11 12 12 12 11 10 9 8 8 9 11 12 12 12 11 11 13 14 12 12 14 14 15 15 14 14 13 11
3 2 5 2 3 3 3 2 4 4 5 3 5 6 1 6 7 9 8 8 9 9 6 6 6 4 4 1 2 6 10 13 16 18 19 19 19 19 18 17 17 16 14 14 15 14 13 12 11 10 9 10 10 10 10 10 11 11 11 11 14 17 18 18 16 14 12 11 10 10 12 13 12 11 10 9 8 8 8 9 10 11 11 10 9 10 12 12 11 12 13 13 14 14 14 13 11
3 3 4 2 1 2 2 1 2 1 4 5 4 4 1 2 6 7 8 8 8 7 5 7 9 5 2 2 3 5 9 13 17 19 20 19 18 18 16 15 16 16 14 14 14 13 12 12 12 11 10 11 11 10 11 11 11 11 11 11 13 16 18 18 17 15 13 12 12 11 12 12 11 10 10 9 8 8 8 8 8 9 9 9 8 8 10 13 12 11 12 12 13 14 14 13 11
3 2 4 2 1 1 2 2 1 1 4 6 3 4 4 4 4 6 9 9 6 4 7 8 5 2 4 6 4 6 12 17 19 19 21 19 18 18 16 16 16 15 14 13 12 12 12 11 11 11 10 10 10 10 10 10 10 10 10 11 12 14 17 18 18 17 13 10 11 11 12 12 10 10 10 9 8 7 7 8 8 7 8 8 7 7 8 12 13 12 11 11 12 13 13 13 12
3 3 5 2 1 1 2 3 1 1 5 6 4 4 3 5 0 5 6 6 7 3 5 5 2 1 5 6 5 13 18 19 20 20 20 19 18 18 16 16 15 14 13 13 12 12 12 11 10 10 9 8 8 9 10 9 9 9 10 11 12 13 15 15 16 15 12 11 10 10 11 11 9 10 10 8 7 7 7 8 9 9 8 8 7 7 8 11 14 13 11 11 11 11 12 12 12
3 4 4 2 2 2 3 3 3 2 5 7 7 6 2 3 3 3 1 7 11 6 4 3 1 1 4 5 13 22 22 19 20 21 19 18 18 17 15 15 15 14 14 13 12 12 12 11 10 9 8 8 7 8 9 9 9 9 10 10 10 11 13 13 14 14 13 12 11 10 10 9 9 11 11 8 7 8 9 9 10 10 9 8 7 8 8 10 14 14 11 11 11 10 9 11 12
3 3 3 1 3 3 5 6 5 3 5 7 8 7 2 2 2 2 5 8 8 7 5 4 5 6 8 14 23 26 22 21 21 20 17 15 15 16 16 16 15 15 15 14 12 11 11 10 9 7 7 8 8 8 9 9 9 9 10 10 10 10 11 12 13 14 13 12 12 11 10 8 9 12 11 9 9 9 11 10 11 11 9 7 7 8 8 9 12 14 13 11 11 10 9 9 11
3 3 2 3 5 4 5 5 4 2 5 9 8 6 1 3 0 1 5 6 7 8 4 5 8 8 11 17 24 25 22 22 19 18 16 13 14 14 15 15 14 15 15 14 13 11 10 10 7 6 6 7 8 8 9 9 9 9 9 9 9 10 11 11 12 13 13 13 13 12 10 8 8 9 10 10 13 14 13 11 11 11 8 5 6 7 7 9 11 13 14 12 11 11 9 8 9
2 3 1 5 6 5 5 5 6 5 6 8 8 6 2 3 0 1 6 7 6 7 5 5 7 7 10 12 18 22 21 19 18 18 16 15 14 13 14 13 13 15 15 14 13 12 11 10 8 6 6 6 7 7 7 7 8 8 7 8 8 9 10 10 12 12 13 14 13 12 10 9 7 8 9 11 12 12 13 11 10 9 6 4 6 7 7 10 11 12 14 13 11 10 10 8 8
1 3 4 6 3 3 6 6 7 7 6 5 7 5 2 2 1 3 9 8 1 5 7 8 11 13 14 12 13 18 18 16 17 17 16 15 14 14 14 14 14 14 15 14 13 13 11 10 9 8 6 6 6 6 6 6 6 7 6 7 7 8 9 9 10 11 13 14 12 11 10 9 8 8 10 10 10 11 12 11 10 9 7 6 6 6 8 10 11 13 14 15 13 10 9 8 8
1 3 6 6 3 4 7 4 5 6 3 4 5 2 2 1 3 6 9 9 4 5 7 8 14 17 17 15 14 14 13 13 14 15 15 16 16 16 16 16 15 15 14 14 14 14 13 12 11 10 8 7 6 5 5 5 6 6 6 7 8 8 8 8 9 9 11 13 12 10 9 9 9 9 10 10 9 11 11 10 10 9 7 8 7 6 8 10 11 13 14 15 14 12 9 8 8
2 4 4 6 5 5 6 2 4 3 4 6 4 3 1 5 4 3 3 5 4 4 3 7 12 17 19 18 15 15 14 13 13 15 17 18 19 19 19 18 17 16 15 15 15 14 14 13 12 11 9 8 6 5 5 5 5 6 7 7 9 9 9 8 8 8 9 11 12 11 11 11 10 10 12 11 8 10 10 10 9 8 7 8 7 5 7 10 11 13 14 14 14 13 10 8 7
3 3 5 5 5 7 6 4 5 3 5 7 3 4 1 7 5 2 3 5 6 4 6 9 8 12 17 17 15 15 14 13 13 16 19 20 21 21 21 19 17 17 17 16 16 15 14 13 12 11 10 8 7 6 5 5 5 6 7 9 10 9 9 8 7 8 9 10 10 11 13 14 13 13 14 12 10 12 12 11 9 9 9 8 7 5 6 8 10 11 12 12 11 11 10 8 6
3 5 5 4 4 7 7 7 6 4 7 4 3 4 2 5 4 5 4 7 4 3 9 10 9 10 12 14 14 12 11 11 13 15 16 17 19 19 18 17 17 18 18 18 17 16 15 14 13 12 10 9 7 6 5 5 6 7 9 10 10 9 9 9 7 8 11 12 12 11 13 15 15 15 14 13 12 14 16 15 13 13 11 9 8 5 5 7 8 10 11 10 9 9 9 7 6
5 5 4 4 6 7 7 7 4 4 5 1 3 3 2 1 1 5 3 5 2 8 10 11 12 11 10 11 12 12 11 11 11 14 14 14 16 17 17 17 18 20 20 19 18 16 15 14 14 12 11 10 8 7 6 6 6 8 9 10 10 10 10 10 9 9 11 12 12 12 13 14 15 16 16 15 14 15 17 18 17 16 14 12 10 7 6 6 7 10 10 9 9 8 7 6 4
5 4 5 6 9 7 4 5 4 2 3 3 5 2 2 4 1 3 4 2 6 10 10 10 12 12 11 9 9 9 10 11 14 15 14 13 16 18 19 19 20 21 21 20 19 17 16 15 14 13 12 10 9 8 7 6 6 7 8 9 9 10 11 12 11 9 9 9 10 11 12 14 14 16 17 14 14 16 17 21 20 19 17 15 13 10 10 9 9 9 9 9 8 7 5 3 3
3 2 6 7 7 5 3 4 4 2 1 3 6 1 5 6 1 3 6 3 7 11 11 10 11 10 9 9 8 7 7 11 16 17 15 16 20 23 23 23 23 23 23 23 20 18 18 17 16 14 12 11 9 8 7 6 6 6 7 8 8 8 9 12 12 9 7 8 10 11 12 14 12 14 15 10 10 13 17 22 22 21 19 17 15 13 12 12 11 11 10 9 7 5 4 4 5
0 3 4 9 7 4 5 4 4 2 0 1 3 1 7 5 2 4 5 1 5 10 11 9 9 7 7 8 7 6 7 11 14 15 18 21 24 27 27 26 26 26 25 23 22 21 20 18 17 15 13 12 10 9 7 6 6 6 6 7 7 6 7 9 10 10 10 10 11 11 10 11 11 11 11 8 9 13 16 20 22 23 22 19 17 16 15 14 13 13 11 10 9 7 7 7 8
2 4 3 5 7 6 6 4 5 3 1 4 2 2 6 7 6 7 3 4 8 9 8 7 7 6 6 7 6 6 7 10 12 15 20 23 26 28 29 28 28 28 27 25 25 24 21 19 17 16 15 13 11 10 9 8 6 5 5 5 4 4 4 5 5 6 8 7 7 6 7 9 9 9 8 6 9 15 18 20 21 23 22 21 19 18 17 16 15 14 12 11 10 10 9 9 10
2 2 3 4 2 4 8 4 4 3 2 6 6 2 6 8 8 6 3 5 10 9 8 7 6 6 7 8 7 7 7 8 11 16 21 24 27 29 29 30 29 29 29 28 27 24 22 20 18 17 16 14 12 11 9 8 7 7 7 6 4 2 2 2 1 2 3 2 2 1 3 6 5 5 7 6 7 13 17 20 22 22 21 22 21 20 19 17 16 15 14 13 12 10 9 8 9
4 1 3 4 2 4 8 3 3 2 3 6 5 1 6 7 8 6 4 6 9 9 9 8 8 8 9 8 8 7 5 6 10 15 20 24 27 29 30 32 32 31 30 29 27 25 22 21 19 18 17 15 13 11 9 8 8 8 8 7 5 3 3 3 4 4 3 2 2 3 5 6 6 5 6 6 6 9 13 18 21 20 21 23 23 21 20 19 17 15 14 13 11 10 9 9 9
4 2 1 3 2 4 4 4 5 2 3 4 2 3 5 5 6 6 2 5 8 8 8 8 8 8 9 8 7 6 5 5 8 13 20 24 27 30 32 34 34 32 31 29 28 25 23 21 20 18 17 16 13 11 9 8 7 7 7 7 5 4 3 3 4 4 2 4 4 5 5 5 6 6 6 5 4 7 10 12 13 16 20 23 23 22 22 21 17 15 16 15 12 10 10 11 11
4 3 2 2 1 2 3 4 5 5 1 3 1 2 7 6 5 7 5 2 7 8 8 9 8 7 8 7 7 6 7 7 9 15 22 26 28 29 31 33 33 32 30 29 27 25 23 21 20 18 17 16 14 12 10 8 7 6 6 6 5 3 3 3 3 3 3 4 5 6 6 6 6 6 5 4 4 5 7 8 9 10 13 17 21 21 21 21 20 19 18 17 15 14 14 13 11
2 1 2 1 2 0 2 3 2 6 2 3 2 4 9 7 6 6 6 1 6 8 6 6 6 6 6 6 7 7 7 10 12 18 24 26 27 28 28 30 30 30 30 28 26 24 22 21 21 19 18 17 15 13 11 10 9 8 7 7 5 3 3 3 3 3 3 3 4 6 6 6 6 5 5 5 5 4 4 6 7 7 8 10 9 9 10 12 17 21 19 17 16 15 14 12 10
6 4 4 3 0 2 5 5 4 2 3 2 1 5 7 7 6 6 6 4 5 6 4 5 4 5 5 5 6 7 9 11 11 14 19 22 25 26 26 27 28 28 29 28 26 24 23 23 23 21 19 18 17 15 14 13 12 10 9 7 5 4 5 4 3 1 2 3 4 5 5 5 4 3 3 4 4 5 4 4 2 3 5 5 5 6 6 5 7 13 17 18 14 12 12 12 10
6 5 5 4 2 3 5 4 5 3 3 1 1 4 7 6 6 6 4 4 3 6 5 5 5 5 6 7 7 8 9 7 5 8 14 20 22 23 24 24 25 25 26 28 27 26 25 25 24 23 21 19 18 17 16 15 13 12 10 8 6 6 6 5 3 2 0 2 3 4 4 4 3 2 2 3 4 5 6 5 3 3 3 3 4 3 4 4 3 6 11 14 10 10 11 11 10
4 5 4 1 2 4 5 3 5 4 1 2 2 2 7 7 6 5 3 1 4 8 8 7 7 7 6 7 8 8 6 3 3 6 11 17 19 20 22 22 24 26 28 29 28 27 27 26 25 24 23 21 19 17 17 16 14 12 11 9 8 7 6 5 3 2 1 2 3 4 4 4 4 3 2 2 3 4 6 6 5 5 5 4 3 4 3 2 2 2 5 7 7 8 11 11 10
3 3 3 0 2 3 5 4 5 5 2 3 4 5 6 8 7 7 3 4 5 7 8 9 9 10 8 9 9 7 7 5 6 6 9 17 19 20 21 22 24 25 28 30 28 28 28 27 27 25 24 23 20 18 17 16 15 13 10 9 9 8 7 6 4 3 4 4 4 5 5 6 6 5 4 3 3 4 5 6 7 8 8 8 7 7 5 3 2 1 1 1 2 5 7 8 9
3 3 3 2 3 1 2 5 6 5 3 1 2 4 6 7 6 7 4 2 3 3 6 6 6 9 10 10 9 9 10 9 8 8 9 13 16 19 22 22 22 23 26 29 29 30 30 29 28 27 25 23 21 19 18 17 17 14 11 10 9 8 8 7 5 4 4 4 4 5 6 7 7 6 5 5 5 5 5 6 6 7 9 9 9 10 10 9 5 1 2 3 3 4 3 2 3
2 2 4 3 2 3 4 4 5 5 4 4 4 5 6 5 6 6 5 5 2 1 2 4 4 6 5 5 8 10 11 11 11 10 10 11 16 22 22 21 22 23 27 31 32 32 32 30 29 28 26 24 22 21 20 20 18 15 13 12 10 8 9 8 6 4 3 3 3 3 5 6 6 5 6 6 6 6 6 6 6 6 8 9 9 11 12 12 9 6 5 6 6 6 5 4 3
4 3 7 7 5 4 2 3 5 5 5 5 4 2 5 5 5 6 4 7 6 4 4 3 5 5 3 6 8 9 9 9 10 10 10 12 16 18 18 19 23 26 30 33 33 32 31 30 29 28 27 25 24 23 23 21 19 17 15 14 13 11 11 10 7 5 4 3 2 2 4 5 4 4 5 5 6 6 6 7 6 6 6 8 8 9 10 11 10 9 8 7 7 6 6 6 6
2 4 6 7 6 4 3 2 3 2 3 4 2 3 5 6 5 6 4 7 8 7 7 5 5 5 6 7 8 9 9 10 9 10 10 11 14 15 17 22 27 30 31 32 31 31 31 30 30 29 28 27 25 25 24 21 20 18 17 17 16 14 13 11 8 5 4 3 3 2 3 5 4 3 5 6 6 6 7 7 7 7 7 8 7 7 9 10 10 10 9 8 8 7 6 7 7
3 4 6 8 6 5 5 4 3 2 3 4 5 4 2 4 5 5 5 6 9 8 9 9 6 3 5 7 8 9 11 12 12 12 12 13 15 18 21 27 32 32 30 30 32 32 33 31 31 30 29 28 28 27 25 23 21 20 19 19 18 16 13 10 9 7 6 5 3 3 1 4 5 4 5 6 7 6 6 6 6 7 8 9 8 9 10 10 10 10 9 8 9 9 9 8 8
5 4 8 6 5 5 5 6 4 1 1 3 6 2 1 5 6 5 5 4 7 8 8 9 9 8 6 6 8 10 12 12 12 14 15 14 18 24 29 33 33 29 28 31 33 34 33 32 32 31 30 29 30 29 27 24 22 21 21 21 21 18 14 11 10 8 7 6 5 4 3 3 4 4 4 4 5 6 7 7 7 8 11 12 11 12 11 11 11 10 10 10 9 10 11 9 9
4 6 7 5 6 6 5 5 3 3 3 3 7 1 1 4 6 5 4 3 5 7 7 7 7 10 11 9 8 10 10 11 12 14 14 17 24 30 32 31 27 24 26 29 30 32 32 32 32 32 31 30 31 30 28 26 24 23 23 23 24 22 18 15 13 11 9 8 7 6 6 5 4 4 3 3 5 6 8 9 9 10 11 12 12 13 13 13 13 13 12 11 10 10 10 10 10
3 6 6 6 6 5 4 3 4 4 2 6 7 2 2 3 5 4 1 1 3 6 6 7 8 9 10 10 9 8 9 10 12 13 13 17 23 25 24 22 21 21 23 25 28 31 31 32 33 33 33 32 31 31 30 28 26 25 25 25 26 25 21 18 16 14 12 11 10 9 8 7 5 4 3 3 4 5 7 8 9 9 10 11 13 14 14 14 15 15 14 13 12 11 11 9 9
5 5 5 3 4 5 4 4 4 4 3 6 4 1 3 2 4 4 4 4 5 5 5 8 9 10 10 9 7 6 7 8 10 11 10 10 13 15 19 20 19 20 23 25 29 32 32 34 34 33 34 34 33 32 31 30 28 27 27 27 28 26 23 21 20 18 15 14 12 11 10 10 8 6 4 3 3 3 4 5 6 7 9 10 13 14 14 14 15 15 16 16 14 14 12 11 10
5 4 5 3 3 4 3 4 0 2 5 4 1 1 2 4 6 4 6 7 6 4 4 6 7 9 9 6 6 6 5 5 7 8 8 7 8 12 18 21 22 23 26 29 31 34 35 35 34 35 36 36 35 34 33 32 31 30 29 29 29 28 25 23 22 20 18 15 14 13 13 12 10 8 7 5 4 3 3 2 4 5 7 9 11 13 13 13 14 16 16 16 15 15 14 13 12
4 4 4 3 2 3 2 3 1 3 5 2 2 1 1 3 3 3 5 6 7 5 5 6 6 8 8 5 6 6 5 4 4 5 6 7 8 11 15 19 23 26 29 30 32 35 36 35 35 36 37 38 37 36 35 34 33 32 30 31 31 30 27 25 23 21 19 17 15 15 14 13 11 9 8 7 6 5 4 2 1 3 5 7 9 11 12 12 14 15 16 16 15 15 14 13 13
3 5 5 4 4 4 3 3 3 3 3 1 2 1 2 2 1 2 4 6 6 5 5 5 4 7 7 7 10 10 8 6 4 4 4 4 7 11 13 15 19 21 24 27 31 33 35 36 36 37 38 39 40 39 37 36 35 33 31 32 33 31 29 27 25 23 20 18 17 16 15 14 11 9 8 8 7 6 5 3 2 2 4 5 8 10 10 11 12 14 15 15 15 15 14 14 14
2 3 5 2 4 5 2 3 5 3 1 1 2 2 3 2 2 3 3 5 5 4 4 3 5 7 7 10 12 10 9 7 5 4 3 2 4 9 10 12 14 15 18 23 26 29 33 35 37 40 40 41 42 40 38 37 35 34 34 34 34 32 30 29 27 25 23 20 19 18 16 14 12 10 10 10 8 7 6 5 4 3 3 4 6 8 10 11 11 13 14 14 13 13 13 13 13
1 2 3 4 4 7 4 1 1 4 2 3 2 1 3 2 0 1 4 4 5 6 7 6 7 8 10 10 9 9 9 8 7 6 3 2 1 6 9 10 11 12 14 19 21 23 25 27 28 30 31 33 36 37 38 37 35 34 35 36 35 34 32 31 29 27 25 23 21 20 17 15 14 12 11 11 10 8 7 6 6 5 3 3 5 7 8 10 10 12 13 13 12 12 13 12 12
5 3 5 3 3 4 4 2 3 5 1 4 3 2 2 0 2 3 4 4 6 7 7 7 7 8 9 8 7 8 8 8 9 9 7 6 4 2 8 12 13 12 13 14 16 18 19 19 20 21 22 25 30 35 38 37 36 37 38 38 37 36 34 32 30 28 26 24 23 23 20 18 16 14 12 12 11 10 9 9 8 7 4 2 4 5 6 8 9 10 12 11 11 11 12 12 12
4 4 3 3 3 1 1 2 1 1 2 3 4 2 2 3 4 2 1 1 4 7 6 6 7 7 7 6 7 8 8 8 9 9 9 7 8 8 2 7 12 13 13 14 16 17 17 17 20 21 23 25 27 31 34 34 35 36 37 38 39 38 36 34 31 30 28 26 25 25 23 20 18 15 14 13 12 11 11 10 10 7 4 1 2 4 5 6 8 9 10 10 10 10 11 12 13
3 3 3 2 3 4 1 2 3 3 2 2 3 3 2 4 5 4 6 5 3 4 5 6 6 6 5 5 6 7 7 8 7 8 8 8 11 15 12 3 4 7 10 13 16 18 20 20 22 22 22 24 25 26 29 33 35 35 36 38 38 38 37 35 33 32 30 28 27 26 24 22 20 18 15 14 13 12 12 11 10 6 3 1 2 3 4 6 7 8 9 9 9 11 12 13 14
2 3 2 1 1 2 1 1 2 4 3 3 1 2 4 5 3 5 6 6 5 3 3 5 6 6 6 5 6 6 6 7 7 7 7 7 11 18 19 15 8 3 1 6 10 15 19 22 23 23 23 25 27 29 31 33 36 37 39 40 39 38 38 36 35 34 32 30 28 28 26 24 22 20 17 15 14 13 12 11 9 6 3 1 1 2 4 6 7 7 8 9 10 11 12 13 13
4 3 3 3 2 2 2 1 2 2 3 4 4 3 6 5 3 5 6 5 5 3 2 4 5 5 6 5 5 5 5 6 6 6 6 7 10 16 21 23 21 18 14 8 2 6 11 16 19 21 23 26 28 32 35 34 34 37 40 41 40 39 39 37 36 35 33 31 30 29 27 26 24 22 20 18 16 15 13 11 8 5 3 2 2 2 4 6 7 7 9 10 11 12 13 13 14
Wind_Direction
0 359 345 330 309 298 326 78 82 326 90 120 278 225 254 242 237 292 300 291 152 354 33 16 71 96 107 128 149 142 117 158 168 152 202 263 137 150 152 153 161 161 162 162 161 161 162 162 158 155 151 147 146 146 145 142 139 137 135 135 134 129 127 127 130 131 134 135 134 134 133 132 131 131 129 128 129 126 122 119 119 121 122 120 116 120 124 124 126 128 132 132 132 133 132 133 132
3 356 340 317 302 269 210 79 99 336 64 81 283 186 252 297 298 238 237 246 166 158 115 95 87 73 71 109 115 102 67 0 201 164 278 129 127 141 152 158 160 161 162 162 162 161 161 162 159 158 155 149 147 148 147 145 142 141 137 137 137 132 127 127 130 133 136 137 137 136 135 133 132 134 133 133 133 130 126 122 121 122 123 121 118 121 123 124 126 129 133 133 132 133 133 134 134
9 1 0 206 300 47 73 41 106 107 89 184 275 231 276 322 261 243 225 197 156 152 122 93 81 64 48 76 56 87 102 329 70 90 114 132 124 139 157 161 160 162 162 160 162 162 162 161 160 159 157 153 150 150 150 148 146 145 142 138 139 136 130 129 131 135 137 138 138 138 138 136 137 139 137 136 136 132 129 127 125 123 123 122 120 121 122 123 125 129 132 131 131 132 133 134 134
16 6 25 151 52 32 63 42 135 129 130 206 280 269 268 251 275 268 206 160 158 174 76 78 59 0 66 98 95 89 87 303 96 91 130 141 137 148 157 160 161 161 160 157 158 160 161 161 160 158 161 159 153 153 153 152 151 150 147 142 140 139 136 134 135 138 138 138 138 139 142 142 143 142 141 141 139 136 134 132 127 124 123 124 124 121 123 125 127 129 130 131 131 132 134 134 132
11 10 46 118 96 48 101 86 126 113 181 188 126 281 274 163 47 61 104 119 206 350 38 89 78 324 59 99 131 116 123 132 122 107 118 138 147 154 157 159 160 157 157 157 158 157 154 155 155 159 166 164 158 155 155 157 156 154 152 148 144 142 141 139 138 140 140 140 140 142 143 145 145 143 145 146 143 141 140 134 129 125 119 122 127 125 125 127 130 131 132 132 132 134 135 133 130
12 78 58 73 102 167 114 129 164 189 225 174 144 248 335 86 104 72 47 11 343 30 54 62 127 134 69 49 98 114 165 141 126 131 136 147 154 158 158 158 157 152 151 154 157 153 146 149 154 161 167 166 165 160 157 159 160 158 156 155 150 145 145 144 142 142 143 143 144 144 140 142 142 140 144 146 147 145 142 137 132 126 116 121 128 128 127 129 133 133 135 134 133 137 137 135 134
24 111 13 59 15 31 118 184 188 216 242 181 171 205 336 59 139 67 19 12 4 15 34 44 131 114 82 54 85 34 72 147 148 151 153 152 156 158 158 159 155 145 144 147 148 147 143 149 153 158 162 164 168 165 162 160 162 162 160 161 156 150 147 147 145 143 145 146 147 144 137 138 137 137 140 145 148 146 143 141 136 126 118 122 129 130 128 129 134 137 139 138 138 141 141 139 137
33 106 43 99 339 22 113 230 224 206 246 227 206 189 232 243 168 123 62 35 16 344 31 165 98 94 94 24 82 352 60 131 153 151 152 150 154 157 158 159 152 142 141 143 143 143 139 148 153 155 158 161 168 169 167 163 163 164 163 163 159 156 151 150 149 145 146 146 148 144 137 135 135 137 137 142 144 144 145 141 135 128 121 124 132 134 132 133 138 144 146 145 144 143 142 141 138
35 60 108 101 152 40 49 292 270 230 257 267 256 204 209 223 201 164 196 225 120 136 152 218 327 93 156 48 90 316 61 128 146 146 150 150 153 155 158 159 152 142 139 141 141 140 136 149 156 155 158 158 164 168 169 166 164 166 167 166 162 160 156 154 152 151 151 148 147 143 137 137 141 141 134 136 138 142 146 140 134 130 125 125 132 138 140 141 144 148 149 146 145 145 146 148 148
30 29 137 89 116 253 316 278 252 261 248 257 266 236 213 220 212 203 212 228 151 144 182 310 22 103 134 92 109 293 125 140 140 143 150 151 154 155 156 158 155 145 140 138 134 136 135 149 158 157 157 154 157 162 168 169 166 166 169 171 168 165 163 160 157 158 157 151 150 144 140 143 145 141 133 136 137 142 148 144 139 134 130 127 132 141 146 148 150 152 153 153 152 151 154 160 162
31 349 95 80 81 231 261 256 275 271 262 275 282 258 225 209 199 222 209 208 170 147 177 40 73 130 104 98 213 142 146 144 141 144 151 152 154 156 155 155 156 150 143 135 132 136 136 143 156 156 154 153 155 158 165 171 171 170 168 172 175 173 169 168 165 164 161 156 154 147 146 150 149 143 137 140 143 148 150 145 143 138 134 131 133 143 150 153 157 158 161 164 163 161 162 168 167
90 330 65 99 156 210 205 216 280 282 286 284 272 270 215 168 168 214 192 184 176 144 168 153 155 153 92 81 179 138 146 148 149 148 154 156 154 155 155 155 155 152 144 137 139 144 142 138 144 148 148 148 150 155 161 165 169 172 170 170 177 177 174 177 175 167 163 162 158 148 149 155 151 146 142 143 148 157 155 142 141 140 136 136 135 140 152 160 164 166 168 171 173 171 167 169 172
118 141 89 140 188 177 173 180 268 299 307 260 235 267 147 144 184 202 182 175 165 150 186 175 163 139 92 166 121 142 149 153 156 152 159 159 155 156 154 154 153 151 144 143 146 148 149 144 142 140 137 136 137 145 152 156 159 166 171 171 174 177 177 180 177 169 168 169 164 157 158 160 156 149 143 142 149 160 158 143 140 141 137 138 139 140 154 167 175 173 170 174 178 180 177 176 181
140 148 118 178 194 136 189 219 280 318 284 258 234 274 322 185 213 194 155 155 172 169 168 152 150 124 100 156 143 166 157 159 160 157 163 160 157 155 151 151 151 150 146 149 151 150 152 151 146 138 135 134 134 140 143 149 154 161 170 173 174 178 181 180 175 172 174 173 172 173 168 163 161 153 148 148 149 155 158 150 149 147 141 141 143 146 157 169 183 182 173 174 178 182 184 184 185
159 128 94 124 352 356 230 217 222 177 258 257 241 285 278 249 202 169 161 154 186 193 126 131 149 118 171 175 176 179 158 161 162 155 159 159 157 153 151 151 148 148 149 155 157 158 157 150 142 135 138 137 136 136 134 141 148 158 166 170 173 178 183 180 175 172 171 173 177 179 171 165 168 162 158 157 148 150 158 161 164 160 150 146 148 159 166 171 183 191 182 177 177 176 180 185 187
132 100 66 72 274 295 238 219 217 215 260 253 275 316 273 282 58 158 202 142 136 153 110 135 183 119 173 179 155 151 152 158 157 151 151 151 152 151 150 149 147 147 152 160 161 162 157 146 139 133 133 135 138 133 131 136 139 147 156 164 170 176 181 178 174 167 162 169 176 181 173 168 179 174 169 171 161 161 166 171 174 169 159 154 156 168 179 176 180 192 191 185 182 175 173 180 187
73 77 67 40 214 206 222 213 193 204 271 276 316 350 90 328 0 124 27 92 121 124 73 82 346 41 143 141 134 140 146 152 149 147 145 142 145 147 149 150 151 151 158 167 163 158 153 146 140 134 132 135 141 140 140 138 136 143 150 161 169 172 177 179 174 163 165 174 173 182 180 174 189 184 179 190 185 173 172 180 184 176 166 167 165 167 182 183 180 188 194 190 187 181 174 175 182
66 89 102 224 204 190 198 196 204 206 290 293 319 336 97 59 2 101 65 80 104 92 56 53 42 48 94 115 128 135 142 144 144 145 142 141 144 148 152 156 157 157 165 170 165 155 151 150 142 135 136 139 145 149 154 150 147 152 155 163 169 169 173 177 173 168 177 175 166 178 182 184 204 193 187 199 199 187 180 183 190 184 175 177 171 164 178 188 184 187 194 197 192 188 185 182 180
112 118 120 232 206 212 206 201 235 219 288 296 310 312 142 113 179 102 101 118 115 96 61 62 72 72 94 112 126 133 139 140 145 146 144 149 152 153 154 159 162 163 169 171 166 159 155 155 148 142 142 148 152 153 160 158 159 162 163 170 172 171 171 171 173 178 183 176 169 179 187 196 217 212 203 208 205 196 186 183 189 186 181 181 169 164 179 191 191 188 191 201 201 193 192 194 186
162 127 199 248 216 238 239 220 243 243 271 292 302 301 120 121 269 62 120 124 114 126 133 114 121 131 124 124 129 133 138 141 150 154 155 156 157 158 158 164 167 169 175 173 168 162 160 158 151 150 149 157 163 165 167 164 166 170 172 177 179 178 178 177 179 185 185 181 178 182 192 203 223 237 229 222 220 207 190 183 186 183 181 177 169 170 183 194 199 193 191 199 206 201 194 195 193
156 148 201 239 201 255 262 223 246 261 253 261 292 307 102 97 50 125 131 121 115 200 195 172 160 155 141 140 137 138 144 148 158 163 160 156 157 163 167 173 175 178 180 176 170 163 160 157 152 152 151 155 168 178 175 176 179 178 179 181 184 188 192 193 192 194 191 186 182 184 199 210 226 247 250 243 237 217 196 187 185 180 173 172 182 187 190 200 208 203 195 195 201 206 200 194 196
161 228 207 227 192 254 271 218 240 262 271 298 307 301 147 63 94 146 149 149 191 230 223 192 159 154 152 149 145 144 150 156 164 167 162 158 161 167 173 179 181 184 183 177 169 162 160 158 153 151 149 152 164 178 183 196 196 188 191 189 189 194 199 200 198 201 196 190 187 194 203 210 224 242 255 256 237 211 197 188 184 179 174 180 196 202 198 207 215 211 200 193 196 204 207 202 201
204 278 249 241 218 236 269 212 236 282 346 315 297 283 87 86 120 179 187 186 250 290 191 166 158 156 151 147 150 154 161 168 168 169 165 161 164 169 175 180 182 182 179 175 169 165 165 162 159 155 151 153 159 174 193 214 210 201 203 202 201 198 199 199 197 200 192 188 192 202 208 211 224 236 247 253 236 212 195 183 183 181 185 194 202 210 208 210 217 215 203 196 196 202 210 209 204
181 267 280 262 221 227 259 262 266 292 284 276 293 308 156 130 147 182 270 271 296 306 124 129 146 147 144 147 156 160 163 166 165 169 168 165 167 170 174 177 178 178 175 175 175 174 172 168 168 164 159 161 164 175 196 219 224 216 211 213 210 201 200 198 197 197 190 195 203 208 211 214 225 234 241 245 232 215 197 182 185 191 197 202 203 212 211 206 212 212 205 203 200 201 202 196 196
197 222 272 278 233 241 269 278 272 252 249 259 34 347 233 182 170 155 248 291 316 102 114 117 129 138 148 154 156 157 157 160 159 163 167 168 168 168 172 176 175 178 178 178 180 179 176 175 176 174 173 173 177 187 202 222 231 225 219 219 216 206 199 194 195 201 199 203 210 212 213 219 230 238 243 242 231 217 199 187 189 194 200 203 200 206 204 196 202 204 205 204 194 187 185 180 184
214 209 267 276 276 278 284 287 280 229 239 192 79 353 347 300 161 154 269 297 140 112 112 123 134 147 160 156 156 157 157 161 159 157 163 169 168 169 174 180 181 182 182 180 182 182 181 185 185 185 185 185 190 197 207 225 233 229 226 228 227 217 203 192 192 207 210 207 209 212 218 227 237 245 246 236 231 224 202 190 193 195 197 202 201 195 186 182 191 199 199 191 179 172 170 175 189
202 215 263 263 280 286 279 290 302 257 246 160 158 242 311 335 31 187 288 276 140 111 116 135 144 158 162 156 159 158 160 167 163 155 154 160 169 175 178 183 185 185 185 184 185 185 186 189 189 191 193 194 197 200 208 221 228 226 226 235 240 227 208 198 194 207 212 205 213 219 226 239 246 252 253 238 229 228 205 192 197 197 196 201 203 195 183 179 183 188 185 178 176 176 179 205 242
206 254 292 299 309 288 284 304 311 338 296 150 149 163 328 338 26 219 273 237 142 122 133 146 150 159 155 155 157 157 166 169 166 160 159 168 176 179 180 183 184 184 187 187 186 187 190 191 190 193 196 196 193 193 198 204 216 222 227 240 247 238 220 206 199 206 210 206 224 231 234 248 256 256 261 256 236 232 210 196 197 200 199 200 202 199 191 187 186 187 186 188 195 206 229 256 274
268 42 322 312 351 358 333 330 312 333 17 15 133 17 333 312 262 275 291 214 126 123 137 145 148 152 149 159 162 163 168 169 174 175 175 177 179 181 182 185 184 184 187 188 188 190 192 192 189 191 191 188 180 176 177 178 195 205 215 232 241 240 230 219 208 210 221 226 234 241 249 260 263 260 266 262 234 227 214 201 199 202 203 202 202 202 199 195 195 198 202 210 221 233 253 269 280
305 27 51 323 1 3 337 342 332 331 0 15 60 266 296 274 265 284 295 125 118 116 135 141 142 148 154 168 171 170 172 177 186 186 182 179 180 184 182 183 184 183 183 185 188 189 189 187 185 183 178 173 165 160 160 159 161 161 172 191 217 226 216 229 227 205 216 230 236 241 258 261 263 265 269 263 228 220 214 207 203 205 206 206 204 202 203 202 201 207 214 223 232 240 255 269 279
339 357 56 13 23 297 310 320 341 338 348 38 72 215 269 272 278 274 246 145 139 137 147 149 147 160 169 178 181 183 189 191 193 188 183 181 181 182 180 178 180 181 181 182 185 184 183 184 182 174 167 163 158 156 156 152 147 139 141 146 160 180 177 218 216 136 167 191 246 283 303 284 294 290 275 272 242 228 222 214 210 210 210 210 210 206 206 207 206 211 220 226 234 242 256 271 282
24 34 319 346 66 293 310 332 10 323 305 21 76 219 276 277 277 256 203 155 152 149 159 163 164 173 177 186 187 187 193 191 195 193 188 186 182 180 179 177 177 181 182 181 181 181 183 184 180 170 163 160 156 156 157 153 148 143 144 141 138 129 91 94 116 122 122 89 38 3 350 324 337 338 297 277 245 239 238 225 216 214 215 215 214 212 210 211 211 215 223 230 237 246 260 271 279
357 59 288 309 31 344 327 354 356 337 283 342 87 206 275 300 303 293 250 160 156 154 167 171 170 180 184 190 191 185 182 181 197 202 196 191 186 182 180 179 180 183 183 182 180 182 184 183 179 172 164 161 157 158 160 158 153 149 158 156 143 121 88 86 107 110 82 70 59 33 14 350 346 347 322 297 261 250 249 241 227 218 221 221 217 218 220 217 213 219 229 234 239 246 258 268 277
324 19 64 270 302 15 344 324 340 15 305 270 46 206 250 282 324 324 320 159 159 168 180 180 176 185 191 191 192 188 185 188 199 204 199 194 189 185 182 182 183 183 183 183 182 183 185 183 180 175 167 163 160 160 162 161 157 153 157 160 154 130 112 112 97 76 60 55 53 45 36 23 11 7 358 339 316 273 261 263 245 223 228 228 220 223 231 230 225 227 231 233 237 247 255 263 277
209 263 85 348 312 54 310 279 315 22 14 247 326 271 258 290 329 323 324 350 183 193 178 170 177 185 197 200 198 195 192 200 204 201 198 193 190 187 184 184 183 182 182 181 181 183 184 183 180 175 170 167 163 162 162 156 150 150 151 154 157 140 133 136 106 72 59 45 41 44 40 34 25 21 20 9 359 335 306 286 252 223 226 236 238 247 260 253 236 230 234 237 238 244 249 256 272
163 173 137 133 28 268 264 253 263 333 85 68 313 251 268 303 309 290 313 337 208 208 141 137 173 185 201 209 208 207 205 211 210 201 195 191 191 189 186 185 183 183 181 179 181 183 183 182 180 175 172 170 166 164 162 154 149 150 152 157 162 144 139 141 130 106 53 43 46 53 56 51 40 22 15 7 7 7 0 341 284 242 246 273 327 330 311 301 250 235 236 237 236 233 243 263 276
129 117 118 149 168 274 275 260 285 283 117 51 225 235 274 278 265 255 278 328 247 222 196 174 185 191 201 207 211 213 215 222 209 197 195 192 194 191 188 186 183 181 179 179 182 184 184 183 180 176 173 173 172 169 166 162 160 159 160 169 170 149 144 149 153 166 337 31 55 61 64 61 64 44 12 352 355 12 23 25 13 342 328 328 0 16 340 320 287 250 230 224 224 225 243 265 272
103 127 122 135 191 247 267 244 297 318 133 268 328 346 289 273 275 259 202 180 228 221 210 201 198 196 201 208 213 213 216 232 192 192 193 194 198 195 191 188 185 181 179 181 185 185 185 185 184 180 175 176 177 176 174 172 175 173 171 173 167 152 152 158 158 135 47 57 76 63 51 47 46 39 34 7 1 29 47 52 48 32 33 39 62 68 24 321 263 246 223 216 218 231 247 258 260
88 125 126 310 253 272 292 295 320 350 66 284 352 15 296 281 288 280 237 189 219 229 214 204 195 192 198 205 208 208 208 208 198 194 193 198 201 198 195 193 189 185 181 183 186 186 186 185 185 183 178 177 178 181 180 175 178 180 175 169 160 153 154 154 141 102 71 73 72 51 39 27 16 18 42 60 60 70 74 70 64 58 60 66 78 84 75 75 90 90 87 150 208 221 240 254 259
91 117 135 249 273 334 297 303 326 354 41 344 27 13 301 302 320 301 289 243 224 247 238 229 205 198 202 199 195 197 204 205 200 199 196 197 201 202 201 197 190 186 184 184 186 188 188 186 185 184 181 179 179 180 178 175 178 181 176 166 160 153 149 150 141 109 82 78 64 40 22 11 13 30 50 60 69 75 72 67 64 65 68 73 85 88 82 82 85 104 84 80 107 131 165 225 263
300 168 162 196 234 202 219 283 329 350 10 33 51 4 313 327 342 305 304 335 339 0 289 275 255 238 215 187 191 198 203 203 201 201 194 189 200 204 202 196 190 189 189 188 189 190 189 187 186 186 183 180 181 179 175 177 179 179 174 168 167 159 154 162 167 156 133 103 68 34 10 8 26 50 54 51 52 53 56 60 62 70 76 76 82 85 84 84 85 84 80 85 99 105 111 116 109
308 244 199 183 177 194 225 349 23 30 348 348 36 349 294 321 326 283 309 347 328 337 348 261 230 244 223 199 205 206 206 207 206 204 197 197 202 201 197 195 193 195 195 192 192 192 189 188 187 186 185 182 182 180 178 182 184 182 180 177 177 171 171 179 181 169 149 129 106 56 17 22 38 41 37 37 35 40 48 57 62 70 77 75 74 77 78 76 74 72 68 73 83 97 113 114 102
299 247 197 159 134 132 121 88 74 77 269 301 49 163 260 319 318 284 324 343 313 315 319 281 229 209 210 220 218 205 205 208 210 209 203 203 199 192 195 199 200 201 199 194 193 192 190 190 188 187 186 183 185 185 184 188 190 193 195 192 188 185 186 187 180 167 157 149 137 122 44 47 62 48 43 46 41 42 44 48 57 61 65 68 66 64 65 63 64 65 61 63 67 76 99 98 85
235 227 147 129 129 148 152 134 131 193 241 317 16 112 196 301 280 284 344 347 320 317 307 297 291 243 219 231 230 217 211 206 203 203 200 200 196 193 197 202 204 205 200 195 194 192 191 190 188 187 185 183 186 189 191 194 195 200 205 205 202 200 199 190 177 172 171 174 165 160 131 73 84 80 65 58 50 42 35 40 50 57 63 65 62 60 61 58 57 58 58 60 61 63 73 82 80
242 186 127 132 137 141 134 116 112 3 343 312 325 39 143 277 275 311 358 346 308 304 295 297 312 317 298 259 235 227 225 218 210 205 200 196 194 197 201 204 205 203 199 197 194 192 192 191 189 188 184 182 187 191 195 198 200 205 211 213 211 210 210 198 183 181 182 187 190 187 184 139 112 99 82 63 53 47 49 60 66 68 68 64 60 55 52 48 46 47 48 49 53 58 61 67 72
221 133 99 79 75 77 86 101 106 45 48 254 272 275 155 272 284 310 350 5 301 293 295 297 310 317 307 287 256 232 228 224 218 213 204 197 197 200 202 203 202 200 199 198 195 193 194 192 190 189 185 183 188 193 198 201 203 209 216 218 216 213 213 204 192 191 193 196 202 203 197 175 148 126 108 83 66 63 72 79 77 71 65 58 51 45 43 45 45 46 46 46 49 53 55 56 62
118 98 68 54 43 38 51 62 86 69 356 257 252 215 143 270 282 275 270 0 294 287 306 311 314 316 303 293 281 251 233 223 216 215 210 202 200 200 200 200 198 197 197 196 196 196 195 194 193 191 188 187 191 195 200 204 206 211 218 222 218 215 213 207 199 197 198 201 205 207 203 191 174 158 145 116 91 80 84 85 74 66 58 50 43 40 44 48 50 50 50 50 50 51 51 49 53
92 74 67 61 355 10 27 356 50 87 270 261 259 161 120 226 265 279 276 285 287 268 284 305 313 314 302 296 303 282 248 226 212 211 210 197 190 190 193 197 194 192 193 194 196 196 197 198 196 194 193 192 194 198 202 206 210 213 220 223 220 216 214 209 204 202 201 200 202 204 203 196 186 176 170 159 134 106 98 84 64 55 49 44 40 40 47 50 50 48 46 45 45 44 42 40 43
80 77 78 87 337 14 12 310 1 178 246 257 279 127 152 229 240 282 304 306 307 282 264 283 295 304 306 317 338 329 287 242 216 208 197 176 180 189 191 190 188 191 194 194 195 197 198 200 199 198 198 196 197 201 204 208 212 215 219 222 220 218 216 213 210 208 206 204 201 202 203 198 193 189 182 177 171 156 147 103 52 41 37 37 36 37 43 46 44 42 39 39 38 37 34 33 37
129 141 122 122 108 61 313 270 251 261 260 273 299 250 262 274 260 301 316 306 304 315 301 280 278 289 306 357 27 17 358 309 259 231 194 177 190 199 196 193 192 195 196 193 195 197 199 201 201 201 201 200 200 204 207 210 214 216 218 220 220 219 219 217 216 216 213 210 207 204 205 203 200 198 188 181 179 179 184 187 25 21 25 29 27 28 34 36 35 34 33 33 35 35 32 32 34
173 160 132 139 155 155 225 223 187 245 257 286 311 262 191 203 286 297 291 288 301 335 314 288 296 293 307 20 38 31 18 356 320 279 240 208 193 194 200 201 201 201 198 194 196 197 199 202 203 204 204 203 203 206 208 212 215 216 217 219 219 221 222 221 221 222 219 216 214 211 211 209 207 207 196 187 188 191 197 211 263 329 2 15 16 20 28 29 27 26 25 26 31 32 30 31 30
223 137 112 151 183 155 169 188 167 176 183 227 268 237 214 221 305 313 296 293 313 353 340 354 12 345 360 30 30 28 22 11 4 339 296 270 190 185 191 196 201 204 202 201 201 200 201 204 206 207 206 205 205 207 209 213 216 217 216 217 219 222 225 224 223 224 223 221 219 217 217 214 211 209 200 193 193 198 207 225 245 271 319 352 3 13 21 22 21 20 18 19 23 25 24 22 19
182 118 156 205 174 123 114 196 53 74 123 244 262 251 296 313 135 347 343 335 352 7 5 18 18 14 29 29 15 19 21 18 19 14 1 0 168 177 178 184 195 202 203 207 208 207 208 211 213 214 212 210 207 207 210 213 216 219 218 217 218 222 225 226 225 226 224 223 223 222 221 218 213 211 204 198 197 202 211 225 236 245 267 326 356 9 15 16 14 11 11 13 14 12 11 10 7
128 176 204 185 127 93 99 137 17 46 162 268 297 206 258 268 195 292 340 11 12 355 352 8 13 26 37 21 5 11 10 16 25 23 21 19 27 144 176 185 196 207 213 214 213 215 219 221 224 226 224 219 213 211 212 213 216 220 220 219 220 223 226 227 228 229 227 224 225 224 223 221 216 213 209 203 201 207 214 221 226 229 238 295 359 16 20 16 11 7 7 8 6 2 1 0 356
124 185 182 115 135 206 65 121 130 107 225 285 314 275 230 205 220 243 204 83 356 340 344 9 11 19 28 13 7 11 10 17 24 23 19 18 22 25 50 190 193 199 210 217 219 224 229 229 229 230 228 225 221 218 215 216 219 222 223 223 224 224 226 228 229 229 229 227 228 226 224 223 220 216 213 208 206 211 216 218 218 217 217 264 25 31 26 19 12 6 6 7 4 360 358 355 352
25 38 24 44 136 168 153 128 156 168 200 256 306 320 277 233 223 169 169 207 267 324 346 357 349 352 2 3 7 15 20 19 19 19 15 17 25 28 30 36 201 200 207 213 217 223 227 229 230 232 230 228 228 227 222 220 222 225 227 227 227 226 226 228 228 228 229 229 230 229 226 225 222 219 217 212 211 215 217 216 213 208 198 131 47 35 24 14 6 3 5 7 3 359 358 356 352
41 33 358 358 70 140 160 90 119 136 151 181 218 295 270 252 223 172 179 209 218 226 325 333 327 334 342 354 6 10 18 18 15 15 13 20 29 34 40 47 54 64 190 216 219 222 223 225 228 231 231 229 229 230 228 223 221 225 229 229 228 228 227 228 228 228 229 230 232 231 228 226 223 220 218 216 215 217 216 212 207 202 198 197 0 15 11 359 353 357 1 0 360 359 359 358 353
154 160 191 171 144 134 133 302 315 81 137 169 164 230 262 253 201 196 201 206 215 216 263 309 313 325 337 353 3 4 12 13 8 11 13 20 33 40 43 47 52 52 46 39 358 252 236 231 232 232 231 231 232 231 230 225 220 224 231 231 228 228 228 227 227 227 227 229 231 231 230 227 223 219 216 216 216 214 211 207 203 203 219 249 289 328 338 337 338 346 351 355 359 360 359 357 353